This is the latest recevied weather packets stored in our database for station/object DB0RES-5. If no packets are shown the sender has not sent any weather packets the latest 10 day(s).
| Time | Temp. | Humidity | Pressure | Rain* | Wind** | Luminosity | Snow |
|---|---|---|---|---|---|---|---|
| 1777928747 | 15° C | 91% | 1014 hPa | 0 mm | - | - | - |
| 1777928144 | 15° C | 90% | 1014.1 hPa | 0 mm | - | - | - |
| 1777927542 | 15° C | 90% | 1014.3 hPa | 0 mm | - | - | - |
| 1777926939 | 15° C | 91% | 1014.3 hPa | 0 mm | - | - | - |
| 1777926337 | 15° C | 91% | 1014.2 hPa | 0 mm | - | - | - |
| 1777925734 | 15° C | 91% | 1014.2 hPa | 0 mm | - | - | - |
| 1777925131 | 15° C | 91% | 1014.2 hPa | 0 mm | - | - | - |
| 1777924529 | 15° C | 91% | 1014.1 hPa | 0 mm | - | - | - |
| 1777923926 | 15° C | 91% | 1014 hPa | 0 mm | - | - | - |
| 1777923324 | 15° C | 91% | 1014 hPa | 0 mm | - | - | - |
| 1777922721 | 15.56° C | 91% | 1013.9 hPa | 0 mm | - | - | - |
| 1777922118 | 15.56° C | 91% | 1014 hPa | 0 mm | - | - | - |
| 1777921516 | 15.56° C | 90% | 1013.8 hPa | 0 mm | - | - | - |
| 1777920973 | 15° C | 90% | 1013.9 hPa | 0 mm | - | - | - |
| 1777920371 | 15° C | 90% | 1013.9 hPa | 0 mm | - | - | - |
| 1777919768 | 15.56° C | 90% | 1013.9 hPa | 0 mm | - | - | - |
| 1777919165 | 15.56° C | 90% | 1013.9 hPa | 0 mm | - | - | - |
| 1777918563 | 15.56° C | 89% | 1013.9 hPa | 0 mm | - | - | - |
| 1777917960 | 15.56° C | 87% | 1013.9 hPa | 0 mm | - | - | - |
| 1777917358 | 15.56° C | 83% | 1013.9 hPa | 0 mm | - | - | - |
| 1777916755 | 16.11° C | 81% | 1014 hPa | 0 mm | - | - | - |
| 1777916153 | 16.11° C | 80% | 1013.7 hPa | 0 mm | - | - | - |
| 1777915550 | 15.56° C | 82% | 1013.8 hPa | 0 mm | - | - | - |
| 1777914948 | 16.11° C | 81% | 1013.8 hPa | 0 mm | - | - | - |
| 1777914345 | 16.11° C | 79% | 1013.8 hPa | 0 mm | - | - | - |
* Rain latest hour (hover to see other rain measurements)
** Current wind speed in m/s (hover to see current wind gust speed)